| time (UTC) | temp C | wind direction | speed KPH | gust KPH | rain 1hr cm | rain 24hr cm | rain mn cm | humidity % | barometer mb |
| 20260505234003 | 10 | 220 | 6.4 | 12.9 | 0.00 | 0.13 | 0.13 | 78 | 1016.0 |
| 20260505233717 | 10 | 220 | 6.4 | 12.9 | 0.00 | 0.13 | 0.13 | 78 | 1016.0 |
| 20260505233003 | 10 | 220 | 8.0 | 12.9 | 0.00 | 0.13 | 0.13 | 78 | 1016.0 |
| 20260505232503 | 10 | 220 | 8.0 | 12.9 | 0.00 | 0.13 | 0.13 | 78 | 1016.0 |
| 20260505232003 | 10 | 220 | 8.0 | 14.5 | 0.00 | 0.13 | 0.13 | 78 | 1016.1 |
| 20260505231503 | 11 | 220 | 8.0 | 14.5 | 0.00 | 0.13 | 0.13 | 78 | 1016.1 |
| 20260505231003 | 11 | 220 | 8.0 | 12.9 | 0.00 | 0.13 | 0.13 | 78 | 1016.1 |
| 20260505230503 | 11 | 220 | 8.0 | 12.9 | 0.00 | 0.13 | 0.13 | 78 | 1016.1 |
| 20260505230004 | 10 | 220 | 8.0 | 12.9 | 0.00 | 0.13 | 0.13 | 78 | 1016.0 |
| 20260505225716 | 10 | 220 | 8.0 | 12.9 | 0.00 | 0.13 | 0.13 | 78 | 1016.1 |
| 20260505225003 | 10 | 220 | 8.0 | 12.9 | 0.00 | 0.13 | 0.13 | 78 | 1016.1 |
| 20260505224716 | 10 | 220 | 8.0 | 12.9 | 0.00 | 0.13 | 0.13 | 78 | 1016.1 |
| 20260505224214 | 10 | 220 | 6.4 | 12.9 | 0.00 | 0.13 | 0.13 | 78 | 1016.1 |
| 20260505223503 | 10 | 220 | 6.4 | 11.3 | 0.00 | 0.13 | 0.13 | 78 | 1016.2 |
| 20260505223003 | 10 | 220 | 6.4 | 11.3 | 0.00 | 0.13 | 0.13 | 79 | 1016.2 |
| 20260505222503 | 10 | 220 | 4.8 | 11.3 | 0.00 | 0.13 | 0.13 | 79 | 1016.3 |
| 20260505222003 | 10 | 220 | 3.2 | 9.7 | 0.00 | 0.13 | 0.13 | 79 | 1016.3 |
| 20260505221503 | 10 | 220 | 3.2 | 6.4 | 0.00 | 0.13 | 0.13 | 79 | 1016.3 |
| 20260505221003 | 10 | 220 | 3.2 | 6.4 | 0.00 | 0.13 | 0.13 | 79 | 1016.4 |
| 20260505220503 | 10 | 220 | 3.2 | 9.7 | 0.00 | 0.13 | 0.13 | 79 | 1016.4 |
| 20260505220004 | 10 | 220 | 6.4 | 11.3 | 0.00 | 0.13 | 0.13 | 79 | 1016.4 |
| 20260505215716 | 10 | 220 | 6.4 | 11.3 | 0.00 | 0.13 | 0.13 | 79 | 1016.4 |
| 20260505215214 | 10 | 220 | 8.0 | 12.9 | 0.00 | 0.13 | 0.13 | 79 | 1016.4 |
| 20260505214503 | 10 | 220 | 8.0 | 12.9 | 0.00 | 0.13 | 0.13 | 79 | 1016.5 |
| 20260505214003 | 10 | 220 | 8.0 | 12.9 | 0.00 | 0.13 | 0.13 | 79 | 1016.5 |
| 20260505213713 | 10 | 220 | 6.4 | 12.9 | 0.00 | 0.13 | 0.13 | 79 | 1016.5 |
| 20260505213003 | 10 | 220 | 6.4 | 14.5 | 0.00 | 0.13 | 0.13 | 79 | 1016.6 |
| 20260505212503 | 10 | 220 | 8.0 | 14.5 | 0.00 | 0.13 | 0.13 | 79 | 1016.5 |
| 20260505212003 | 10 | 220 | 6.4 | 12.9 | 0.00 | 0.13 | 0.13 | 79 | 1016.5 |
| 20260505211503 | 10 | 220 | 6.4 | 12.9 | 0.00 | 0.13 | 0.13 | 79 | 1016.4 |
| 20260505211003 | 10 | 220 | 8.0 | 14.5 | 0.00 | 0.13 | 0.13 | 79 | 1016.5 |
| 20260505210716 | 10 | 220 | 8.0 | 14.5 | 0.00 | 0.13 | 0.13 | 79 | 1016.5 |
| 20260505210003 | 10 | 220 | 6.4 | 14.5 | 0.00 | 0.13 | 0.13 | 79 | 1016.4 |
| 20260505205503 | 10 | 220 | 3.2 | 11.3 | 0.00 | 0.13 | 0.13 | 79 | 1016.4 |
| 20260505205003 | 10 | 220 | 3.2 | 11.3 | 0.00 | 0.13 | 0.13 | 79 | 1016.4 |
| 20260505204503 | 10 | 220 | 3.2 | 12.9 | 0.00 | 0.13 | 0.13 | 79 | 1016.4 |
| 20260505204003 | 10 | 220 | 4.8 | 12.9 | 0.00 | 0.13 | 0.13 | 79 | 1016.5 |
| 20260505203503 | 10 | 220 | 9.7 | 17.7 | 0.00 | 0.13 | 0.13 | 80 | 1016.4 |
| 20260505203003 | 10 | 220 | 11.3 | 19.3 | 0.00 | 0.13 | 0.13 | 80 | 1016.4 |
| 20260505202503 | 10 | 220 | 9.7 | 19.3 | 0.00 | 0.13 | 0.13 | 80 | 1016.4 |
| 20260505202004 | 10 | 220 | 8.0 | 14.5 | 0.00 | 0.13 | 0.13 | 80 | 1016.5 |
| 20260505201503 | 10 | 220 | 4.8 | 12.9 | 0.00 | 0.13 | 0.13 | 80 | 1016.6 |
| 20260505201003 | 10 | 220 | 4.8 | 12.9 | 0.00 | 0.13 | 0.13 | 80 | 1016.6 |
| 20260505200503 | 10 | 220 | 6.4 | 12.9 | 0.00 | 0.18 | 0.13 | 80 | 1016.7 |
| 20260505200214 | 10 | 220 | 8.0 | 12.9 | 0.00 | 0.18 | 0.13 | 80 | 1016.6 |
| 20260505195503 | 10 | 220 | 8.0 | 14.5 | 0.00 | 0.18 | 0.13 | 80 | 1016.6 |
| 20260505195003 | 10 | 220 | 6.4 | 14.5 | 0.00 | 0.18 | 0.13 | 80 | 1016.6 |
| 20260505194503 | 10 | 220 | 6.4 | 14.5 | 0.00 | 0.18 | 0.13 | 80 | 1016.7 |
| 20260505194003 | 10 | 220 | 8.0 | 16.1 | 0.00 | 0.18 | 0.13 | 79 | 1016.7 |
| 20260505193714 | 10 | 220 | 8.0 | 16.1 | 0.00 | 0.18 | 0.13 | 79 | 1016.6 |
| 20260505193212 | 10 | 220 | 9.7 | 16.1 | 0.00 | 0.18 | 0.13 | 79 | 1016.6 |
| 20260505192503 | 10 | 220 | 8.0 | 16.1 | 0.00 | 0.18 | 0.13 | 79 | 1016.6 |
| 20260505192003 | 10 | 220 | 8.0 | 14.5 | 0.00 | 0.18 | 0.13 | 79 | 1016.6 |
| 20260505191503 | 10 | 220 | 8.0 | 14.5 | 0.00 | 0.18 | 0.13 | 79 | 1016.5 |
| 20260505191003 | 10 | 219 | 8.0 | 12.9 | 0.00 | 0.18 | 0.13 | 80 | 1016.6 |
| 20260505190503 | 10 | 220 | 6.4 | 12.9 | 0.00 | 0.18 | 0.13 | 80 | 1016.6 |
| 20260505190004 | 9 | 220 | 6.4 | 12.9 | 0.00 | 0.18 | 0.13 | 80 | 1016.5 |
| 20260505185503 | 9 | 220 | 6.4 | 16.1 | 0.00 | 0.18 | 0.13 | 79 | 1016.5 |
| 20260505185003 | 9 | 220 | 6.4 | 16.1 | 0.00 | 0.18 | 0.13 | 79 | 1016.5 |
| 20260505184503 | 9 | 220 | 6.4 | 12.9 | 0.00 | 0.18 | 0.13 | 79 | 1016.4 |
| 20260505184217 | 9 | 219 | 4.8 | 12.9 | 0.00 | 0.18 | 0.13 | 80 | 1016.4 |
| 20260505183503 | 9 | 220 | 6.4 | 12.9 | 0.00 | 0.18 | 0.13 | 79 | 1016.3 |
| 20260505183003 | 9 | 220 | 6.4 | 11.3 | 0.00 | 0.18 | 0.13 | 80 | 1016.4 |
| 20260505182503 | 9 | 220 | 6.4 | 12.9 | 0.00 | 0.18 | 0.13 | 79 | 1016.4 |
| 20260505182003 | 9 | 220 | 8.0 | 12.9 | 0.00 | 0.18 | 0.13 | 79 | 1016.4 |
| 20260505181503 | 9 | 220 | 6.4 | 12.9 | 0.00 | 0.18 | 0.13 | 79 | 1016.3 |
| 20260505181003 | 9 | 220 | 4.8 | 11.3 | 0.00 | 0.18 | 0.13 | 79 | 1016.3 |
| 20260505180713 | 9 | 219 | 4.8 | 8.0 | 0.00 | 0.18 | 0.13 | 79 | 1016.3 |
| 20260505180003 | 8 | 219 | 4.8 | 12.9 | 0.00 | 0.18 | 0.13 | 79 | 1016.2 |
| 20260505175503 | 8 | 219 | 4.8 | 12.9 | 0.00 | 0.18 | 0.13 | 79 | 1016.3 |
| 20260505175217 | 8 | 220 | 4.8 | 9.7 | 0.00 | 0.18 | 0.13 | 79 | 1016.3 |
| 20260505174503 | 8 | 220 | 6.4 | 9.7 | 0.00 | 0.18 | 0.13 | 79 | 1016.1 |
| 20260505174003 | 8 | 220 | 6.4 | 9.7 | 0.00 | 0.18 | 0.13 | 79 | 1016.0 |
| 20260505173503 | 8 | 220 | 6.4 | 12.9 | 0.00 | 0.18 | 0.13 | 79 | 1016.0 |
| 20260505173003 | 8 | 220 | 6.4 | 12.9 | 0.00 | 0.18 | 0.13 | 79 | 1015.9 |
| 20260505172503 | 8 | 220 | 8.0 | 14.5 | 0.00 | 0.18 | 0.13 | 79 | 1015.9 |
| 20260505172003 | 8 | 220 | 6.4 | 14.5 | 0.00 | 0.18 | 0.13 | 79 | 1015.8 |
| 20260505171503 | 8 | 220 | 6.4 | 12.9 | 0.00 | 0.18 | 0.13 | 79 | 1015.8 |
| 20260505171215 | 8 | 220 | 6.4 | 16.1 | 0.00 | 0.18 | 0.13 | 79 | 1015.8 |
| 20260505170503 | 8 | 220 | 6.4 | 16.1 | 0.00 | 0.18 | 0.13 | 79 | 1015.8 |
| 20260505170003 | 8 | 220 | 4.8 | 11.3 | 0.00 | 0.18 | 0.13 | 79 | 1015.8 |
| 20260505165503 | 8 | 220 | 6.4 | 14.5 | 0.00 | 0.18 | 0.13 | 79 | 1015.8 |
| 20260505165003 | 8 | 220 | 8.0 | 14.5 | 0.00 | 0.18 | 0.13 | 79 | 1015.7 |
| 20260505164715 | 8 | 220 | 6.4 | 14.5 | 0.00 | 0.18 | 0.13 | 79 | 1015.7 |
| 20260505164213 | 8 | 220 | 6.4 | 12.9 | 0.00 | 0.18 | 0.13 | 79 | 1015.6 |
| 20260505163503 | 8 | 220 | 8.0 | 14.5 | 0.00 | 0.18 | 0.13 | 79 | 1015.7 |
| 20260505163003 | 8 | 220 | 9.7 | 17.7 | 0.00 | 0.18 | 0.13 | 79 | 1015.6 |
| 20260505162717 | 8 | 220 | 8.0 | 17.7 | 0.00 | 0.18 | 0.13 | 79 | 1015.6 |
| 20260505162003 | 8 | 220 | 4.8 | 11.3 | 0.00 | 0.18 | 0.13 | 79 | 1015.6 |
| 20260505161713 | 8 | 220 | 4.8 | 11.3 | 0.00 | 0.18 | 0.13 | 79 | 1015.6 |
| 20260505161003 | 8 | 220 | 4.8 | 11.3 | 0.00 | 0.18 | 0.13 | 79 | 1015.6 |
| 20260505160503 | 8 | 220 | 4.8 | 12.9 | 0.00 | 0.18 | 0.13 | 78 | 1015.5 |
| 20260505160217 | 8 | 220 | 4.8 | 12.9 | 0.00 | 0.18 | 0.13 | 79 | 1015.5 |
| 20260505153003 | 8 | 220 | 3.2 | 8.0 | 0.00 | 0.18 | 0.13 | 79 | 1015.3 |
| 20260505152503 | 8 | 220 | 1.6 | 6.4 | 0.00 | 0.18 | 0.13 | 79 | 1015.3 |
| 20260505152003 | 8 | 219 | 1.6 | 11.3 | 0.00 | 0.18 | 0.13 | 78 | 1015.2 |
| 20260505151503 | 8 | 219 | 4.8 | 11.3 | 0.00 | 0.18 | 0.13 | 78 | 1015.2 |
| 20260505151003 | 8 | 220 | 4.8 | 11.3 | 0.00 | 0.18 | 0.13 | 79 | 1015.1 |
| 20260505150503 | 8 | 220 | 3.2 | 8.0 | 0.00 | 0.18 | 0.13 | 79 | 1015.2 |
| 20260505140503 | 7 | 220 | 1.6 | 11.3 | 0.00 | 0.18 | 0.13 | 79 | 1014.9 |
| 20260505130214 | 7 | 220 | 3.2 | 11.3 | 0.00 | 0.18 | 0.13 | 79 | 1014.5 |
| 20260505124503 | 7 | 219 | 1.6 | 9.7 | 0.05 | 0.18 | 0.13 | 79 | 1014.9 |
| 20260505124216 | 7 | 219 | 0.0 | 6.4 | 0.05 | 0.18 | 0.13 | 79 | 1014.9 |
| 20260505123503 | 7 | 219 | 1.6 | 8.0 | 0.05 | 0.18 | 0.13 | 79 | 1014.6 |
| 20260505123003 | 7 | 219 | 1.6 | 8.0 | 0.05 | 0.18 | 0.13 | 79 | 1014.8 |
| 20260505122503 | 7 | 219 | 1.6 | 4.8 | 0.05 | 0.18 | 0.13 | 79 | 1014.6 |
| 20260505122003 | 7 | 220 | 1.6 | 6.4 | 0.05 | 0.18 | 0.13 | 79 | 1014.6 |
| 20260505121503 | 7 | 220 | 1.6 | 6.4 | 0.05 | 0.18 | 0.13 | 79 | 1014.6 |
| 20260505121213 | 7 | 220 | 0.0 | 6.4 | 0.05 | 0.18 | 0.13 | 79 | 1014.7 |
| 20260505120503 | 7 | 220 | 0.0 | 1.6 | 0.05 | 0.18 | 0.13 | 79 | 1014.6 |
| 20260505120003 | 7 | 220 | 0.0 | 4.8 | 0.05 | 0.18 | 0.13 | 79 | 1014.7 |
| 20260505115503 | 7 | 220 | 0.0 | 4.8 | 0.13 | 0.18 | 0.13 | 79 | 1014.6 |
| 20260505115003 | 7 | 219 | 0.0 | 4.8 | 0.13 | 0.18 | 0.13 | 79 | 1014.7 |
| 20260505114503 | 7 | 219 | 0.0 | 4.8 | 0.05 | 0.13 | 0.05 | 79 | 1014.6 |
| 20260505114003 | 7 | 0 | 0.0 | 0.0 | 0.05 | 0.13 | 0.05 | 79 | 1014.6 |
| 20260505113503 | 7 | 0 | 0.0 | 0.0 | 0.05 | 0.13 | 0.05 | 79 | 1014.7 |
| 20260505113003 | 7 | 0 | 0.0 | 0.0 | 0.05 | 0.13 | 0.05 | 79 | 1014.7 |
| 20260505112503 | 7 | 0 | 0.0 | 0.0 | 0.05 | 0.13 | 0.05 | 95 | 1014.8 |
| 20260505112003 | 7 | 0 | 0.0 | 0.0 | 0.05 | 0.13 | 0.05 | 78 | 1014.7 |
| 20260505111503 | 7 | 0 | 0.0 | 0.0 | 0.05 | 0.13 | 0.05 | 78 | 1014.7 |
| 20260505111003 | 7 | 220 | 0.0 | 6.4 | 0.05 | 0.13 | 0.05 | 78 | 1014.6 |
| 20260505110503 | 7 | 219 | 0.0 | 6.4 | 0.05 | 0.13 | 0.05 | 78 | 1014.6 |
| 20260505102004 | 7 | 0 | 0.0 | 0.0 | 0.00 | 0.05 | 0.00 | 78 | 1014.7 |
| 20260505101503 | 7 | 0 | 0.0 | 0.0 | 0.00 | 0.05 | 0.00 | 78 | 1014.8 |
| 20260505101003 | 7 | 0 | 0.0 | 0.0 | 0.00 | 0.05 | 0.00 | 78 | 1014.8 |
| 20260505100503 | 7 | 220 | 0.0 | 1.6 | 0.00 | 0.05 | 0.00 | 78 | 1014.8 |
| 20260505100003 | 7 | 220 | 1.6 | 6.4 | 0.00 | 0.05 | 0.00 | 78 | 1014.9 |
| 20260505095714 | 7 | 220 | 3.2 | 8.0 | 0.00 | 0.05 | 0.00 | 78 | 1015.0 |
| 20260505095217 | 7 | 220 | 3.2 | 8.0 | 0.00 | 0.05 | 0.00 | 78 | 1014.8 |
| 20260505094503 | 7 | 220 | 1.6 | 6.4 | 0.00 | 0.05 | 0.00 | 78 | 1014.9 |
| 20260505094003 | 7 | 220 | 1.6 | 8.0 | 0.00 | 0.05 | 0.00 | 78 | 1014.9 |
| 20260505093503 | 7 | 220 | 3.2 | 8.0 | 0.00 | 0.05 | 0.00 | 78 | 1014.9 |
| 20260505093214 | 7 | 220 | 1.6 | 6.4 | 0.00 | 0.05 | 0.00 | 79 | 1014.9 |
| 20260505092503 | 7 | 220 | 0.0 | 6.4 | 0.00 | 0.05 | 0.00 | 79 | 1014.8 |
| 20260505092003 | 7 | 220 | 0.0 | 4.8 | 0.00 | 0.05 | 0.00 | 79 | 1015.0 |
| 20260505091503 | 7 | 0 | 0.0 | 0.0 | 0.00 | 0.05 | 0.00 | 79 | 1015.0 |
| 20260505091003 | 7 | 0 | 0.0 | 0.0 | 0.00 | 0.05 | 0.00 | 79 | 1015.1 |
| 20260505090503 | 7 | 0 | 0.0 | 0.0 | 0.00 | 0.05 | 0.00 | 79 | 1015.2 |
| 20260505090003 | 7 | 0 | 0.0 | 0.0 | 0.00 | 0.05 | 0.00 | 79 | 1015.2 |
| 20260505085714 | 7 | 0 | 0.0 | 0.0 | 0.00 | 0.05 | 0.00 | 79 | 1015.1 |
| 20260505085003 | 7 | 0 | 0.0 | 0.0 | 0.00 | 0.05 | 0.00 | 79 | 1015.3 |
| 20260505084503 | 7 | 0 | 0.0 | 0.0 | 0.00 | 0.05 | 0.00 | 79 | 1015.3 |
| 20260505084003 | 7 | 0 | 0.0 | 0.0 | 0.00 | 0.05 | 0.00 | 79 | 1015.3 |
| 20260505083716 | 7 | 0 | 0.0 | 0.0 | 0.00 | 0.05 | 0.00 | 79 | 1015.3 |
| 20260505083003 | 7 | 0 | 0.0 | 0.0 | 0.00 | 0.05 | 0.00 | 79 | 1015.4 |
| 20260505082503 | 7 | 0 | 0.0 | 0.0 | 0.00 | 0.05 | 0.00 | 79 | 1015.4 |
| 20260505082003 | 7 | 0 | 0.0 | 0.0 | 0.00 | 0.05 | 0.00 | 79 | 1015.3 |
| 20260505081503 | 7 | 0 | 0.0 | 0.0 | 0.00 | 0.05 | 0.00 | 79 | 1015.4 |
| 20260505081003 | 7 | 0 | 0.0 | 0.0 | 0.00 | 0.05 | 0.00 | 79 | 1015.5 |
| 20260505080503 | 7 | 0 | 0.0 | 0.0 | 0.00 | 0.05 | 0.00 | 79 | 1015.6 |
| 20260505080003 | 7 | 0 | 0.0 | 0.0 | 0.00 | 0.05 | 0.00 | 79 | 1015.6 |
| 20260505075503 | 7 | 0 | 0.0 | 0.0 | 0.00 | 0.05 | 0.00 | 79 | 1015.6 |
| 20260505075003 | 7 | 0 | 0.0 | 0.0 | 0.00 | 0.05 | 0.00 | 79 | 1015.6 |
| 20260505074503 | 7 | 0 | 0.0 | 0.0 | 0.00 | 0.05 | 0.00 | 79 | 1015.6 |
| 20260505074214 | 7 | 220 | 1.6 | 12.9 | 0.00 | 0.05 | 0.00 | 79 | 1015.6 |
| 20260505073503 | 7 | 220 | 1.6 | 12.9 | 0.00 | 0.05 | 0.00 | 79 | 1015.6 |
| 20260505073003 | 7 | 220 | 0.0 | 6.4 | 0.00 | 0.05 | 0.00 | 79 | 1015.5 |
| 20260505072713 | 7 | 220 | 0.0 | 6.4 | 0.00 | 0.05 | 0.00 | 79 | 1015.5 |
| 20260505072216 | 7 | 220 | 1.6 | 9.7 | 0.00 | 0.05 | 0.00 | 79 | 1015.5 |
| 20260505071503 | 7 | 220 | 4.8 | 9.7 | 0.00 | 0.05 | 0.00 | 79 | 1015.4 |
| 20260505071003 | 7 | 220 | 6.4 | 9.7 | 0.00 | 0.05 | 0.00 | 79 | 1015.4 |
| 20260505070503 | 7 | 220 | 6.4 | 12.9 | 0.00 | 0.05 | 0.00 | 79 | 1015.3 |
| 20260505070007 | 8 | 220 | 6.4 | 12.9 | 0.00 | 0.05 | 0.00 | 79 | 1015.2 |
| 20260505065503 | 8 | 220 | 4.8 | 11.3 | 0.00 | 0.05 | 0.05 | 79 | 1015.3 |
| 20260505065003 | 8 | 220 | 3.2 | 8.0 | 0.00 | 0.05 | 0.05 | 79 | 1015.3 |
| 20260505064503 | 8 | 220 | 3.2 | 9.7 | 0.00 | 0.05 | 0.05 | 79 | 1015.3 |
| 20260505064003 | 8 | 220 | 3.2 | 9.7 | 0.00 | 0.05 | 0.05 | 79 | 1015.2 |
| 20260505063503 | 8 | 220 | 3.2 | 9.7 | 0.00 | 0.05 | 0.05 | 79 | 1015.2 |
| 20260505063003 | 8 | 220 | 3.2 | 9.7 | 0.00 | 0.05 | 0.05 | 79 | 1015.2 |
| 20260505062713 | 8 | 220 | 3.2 | 9.7 | 0.00 | 0.05 | 0.05 | 79 | 1015.1 |
| 20260505062003 | 8 | 220 | 4.8 | 9.7 | 0.00 | 0.05 | 0.05 | 79 | 1015.1 |
| 20260505061714 | 8 | 220 | 4.8 | 9.7 | 0.00 | 0.05 | 0.05 | 79 | 1015.1 |
| 20260505061003 | 8 | 220 | 4.8 | 8.0 | 0.00 | 0.05 | 0.05 | 79 | 1015.0 |
| 20260505060503 | 8 | 220 | 3.2 | 6.4 | 0.00 | 0.05 | 0.05 | 79 | 1015.1 |
| 20260505060004 | 8 | 220 | 1.6 | 6.4 | 0.00 | 0.05 | 0.05 | 79 | 1015.1 |
| 20260505055503 | 7 | 219 | 1.6 | 6.4 | 0.00 | 0.05 | 0.05 | 79 | 1015.2 |
| 20260505055003 | 7 | 219 | 0.0 | 4.8 | 0.00 | 0.05 | 0.05 | 79 | 1015.3 |
| 20260505054503 | 7 | 219 | 0.0 | 3.2 | 0.00 | 0.05 | 0.05 | 79 | 1015.1 |
| 20260505054003 | 7 | 0 | 0.0 | 0.0 | 0.00 | 0.05 | 0.05 | 79 | 1015.3 |
| 20260505053503 | 7 | 220 | 0.0 | 1.6 | 0.00 | 0.05 | 0.05 | 78 | 1015.5 |
| 20260505053003 | 7 | 220 | 0.0 | 3.2 | 0.00 | 0.05 | 0.05 | 78 | 1015.6 |
| 20260505052714 | 7 | 220 | 0.0 | 3.2 | 0.00 | 0.05 | 0.05 | 78 | 1015.6 |
| 20260505052003 | 7 | 0 | 0.0 | 0.0 | 0.00 | 0.05 | 0.05 | 78 | 1015.6 |
| 20260505051503 | 7 | 0 | 0.0 | 1.6 | 0.00 | 0.05 | 0.05 | 78 | 1015.6 |
| 20260505051003 | 7 | 0 | 0.0 | 1.6 | 0.00 | 0.05 | 0.05 | 78 | 1015.6 |
| 20260505050716 | 7 | 220 | 0.0 | 1.6 | 0.00 | 0.05 | 0.05 | 78 | 1015.7 |
| 20260505041503 | 8 | 220 | 3.2 | 8.0 | 0.00 | 0.05 | 0.05 | 78 | 1015.3 |
| 20260505041003 | 8 | 219 | 3.2 | 8.0 | 0.00 | 0.05 | 0.05 | 78 | 1015.3 |
| 20260505040503 | 8 | 219 | 4.8 | 8.0 | 0.00 | 0.05 | 0.05 | 78 | 1015.3 |
| 20260505040004 | 8 | 220 | 3.2 | 9.7 | 0.00 | 0.05 | 0.05 | 78 | 1015.2 |
| 20260505035503 | 8 | 220 | 1.6 | 9.7 | 0.00 | 0.05 | 0.05 | 78 | 1015.1 |
| 20260505035003 | 8 | 219 | 3.2 | 11.3 | 0.00 | 0.05 | 0.05 | 78 | 1015.1 |
| 20260505034503 | 8 | 219 | 3.2 | 11.3 | 0.00 | 0.05 | 0.05 | 78 | 1014.9 |
| 20260505034003 | 8 | 220 | 3.2 | 8.0 | 0.00 | 0.05 | 0.05 | 78 | 1014.9 |
| 20260505033503 | 8 | 220 | 4.8 | 8.0 | 0.00 | 0.05 | 0.05 | 78 | 1014.7 |
| 20260505033003 | 8 | 220 | 4.8 | 8.0 | 0.00 | 0.05 | 0.05 | 78 | 1014.7 |
| 20260505032715 | 8 | 220 | 3.2 | 8.0 | 0.00 | 0.05 | 0.05 | 78 | 1014.8 |
| 20260505032213 | 8 | 220 | 3.2 | 6.4 | 0.00 | 0.05 | 0.05 | 78 | 1014.8 |
| 20260505031503 | 8 | 220 | 3.2 | 6.4 | 0.00 | 0.05 | 0.05 | 78 | 1014.8 |
| 20260505031003 | 8 | 220 | 0.0 | 6.4 | 0.00 | 0.05 | 0.05 | 78 | 1014.8 |
| 20260505030503 | 8 | 220 | 0.0 | 3.2 | 0.00 | 0.05 | 0.05 | 78 | 1014.9 |
| 20260505030003 | 8 | 220 | 1.6 | 8.0 | 0.00 | 0.05 | 0.05 | 77 | 1014.8 |
| 20260505025503 | 8 | 220 | 1.6 | 8.0 | 0.00 | 0.05 | 0.05 | 76 | 1014.8 |
| 20260505025216 | 8 | 220 | 1.6 | 8.0 | 0.00 | 0.05 | 0.05 | 76 | 1014.8 |
| 20260505024503 | 8 | 220 | 0.0 | 8.0 | 0.00 | 0.05 | 0.05 | 77 | 1014.6 |
| 20260505024003 | 9 | 220 | 1.6 | 8.0 | 0.00 | 0.05 | 0.05 | 77 | 1014.7 |
| 20260505023503 | 9 | 220 | 3.2 | 11.3 | 0.00 | 0.05 | 0.05 | 77 | 1014.8 |
| 20260505023003 | 9 | 220 | 4.8 | 11.3 | 0.00 | 0.05 | 0.05 | 77 | 1014.7 |
| 20260505022503 | 9 | 220 | 3.2 | 8.0 | 0.00 | 0.05 | 0.05 | 77 | 1014.6 |
| 20260505022003 | 9 | 220 | 3.2 | 11.3 | 0.00 | 0.05 | 0.05 | 90 | 1014.9 |
| 20260505021503 | 10 | 220 | 6.4 | 12.9 | 0.00 | 0.05 | 0.05 | 91 | 1014.7 |
| 20260505021215 | 10 | 220 | 6.4 | 12.9 | 0.00 | 0.05 | 0.05 | 91 | 1014.7 |
| 20260505020713 | 10 | 220 | 6.4 | 12.9 | 0.00 | 0.05 | 0.05 | 76 | 1014.7 |
| 20260505020003 | 10 | 220 | 6.4 | 11.3 | 0.00 | 0.05 | 0.05 | 76 | 1014.6 |
| 20260505015503 | 10 | 220 | 6.4 | 12.9 | 0.00 | 0.05 | 0.05 | 90 | 1014.7 |
| 20260505015003 | 10 | 220 | 8.0 | 16.1 | 0.00 | 0.05 | 0.05 | 89 | 1014.7 |
| 20260505014503 | 10 | 220 | 6.4 | 16.1 | 0.00 | 0.05 | 0.05 | 87 | 1014.7 |
| 20260505014003 | 11 | 220 | 6.4 | 11.3 | 0.00 | 0.05 | 0.05 | 86 | 1014.6 |
| 20260505013503 | 11 | 220 | 6.4 | 11.3 | 0.00 | 0.05 | 0.05 | 74 | 1014.6 |
| 20260505013003 | 11 | 220 | 8.0 | 14.5 | 0.00 | 0.05 | 0.05 | 86 | 1014.6 |
| 20260505012503 | 11 | 220 | 9.7 | 16.1 | 0.00 | 0.05 | 0.05 | 86 | 1014.8 |
| 20260505012003 | 11 | 220 | 9.7 | 16.1 | 0.00 | 0.05 | 0.05 | 87 | 1014.8 |
| 20260505011503 | 11 | 220 | 9.7 | 16.1 | 0.00 | 0.05 | 0.05 | 87 | 1014.8 |
| 20260505011003 | 11 | 220 | 11.3 | 16.1 | 0.00 | 0.05 | 0.05 | 86 | 1014.9 |
| 20260505010503 | 11 | 220 | 11.3 | 17.7 | 0.00 | 0.05 | 0.05 | 85 | 1015.0 |
| 20260505010003 | 11 | 220 | 9.7 | 17.7 | 0.00 | 0.05 | 0.05 | 73 | 1015.1 |
| 20260505005503 | 11 | 220 | 8.0 | 16.1 | 0.00 | 0.05 | 0.05 | 74 | 1015.1 |
| 20260505005004 | 11 | 220 | 9.7 | 14.5 | 0.00 | 0.05 | 0.05 | 85 | 1015.1 |
| 20260505004503 | 11 | 220 | 9.7 | 14.5 | 0.00 | 0.05 | 0.05 | 75 | 1015.1 |
| 20260505004003 | 11 | 220 | 8.0 | 14.5 | 0.00 | 0.05 | 0.05 | 74 | 1015.2 |
| 20260505003503 | 11 | 220 | 4.8 | 11.3 | 0.00 | 0.05 | 0.05 | 75 | 1015.3 |
| 20260505003003 | 11 | 220 | 6.4 | 11.3 | 0.00 | 0.05 | 0.05 | 75 | 1015.4 |
| 20260505002717 | 11 | 220 | 6.4 | 16.1 | 0.00 | 0.05 | 0.05 | 75 | 1015.4 |
| 20260505002003 | 11 | 220 | 8.0 | 16.1 | 0.00 | 0.05 | 0.05 | 76 | 1015.4 |
| 20260505001503 | 11 | 220 | 8.0 | 14.5 | 0.00 | 0.05 | 0.05 | 76 | 1015.4 |
| 20260505001003 | 11 | 220 | 6.4 | 12.9 | 0.00 | 0.05 | 0.05 | 76 | 1015.4 |
| 20260505000503 | 11 | 220 | 6.4 | 12.9 | 0.00 | 0.05 | 0.05 | 77 | 1015.2 |
| 20260505000003 | 10 | 220 | 6.4 | 12.9 | 0.00 | 0.13 | 0.05 | 76 | 1015.3 |
| 20260504235503 | 10 | 220 | 6.4 | 12.9 | 0.00 | 0.13 | 0.05 | 77 | 1015.3 |
| 20260504235003 | 10 | 219 | 6.4 | 12.9 | 0.00 | 0.13 | 0.05 | 77 | 1015.2 |
| 20260504234716 | 10 | 220 | 8.0 | 14.5 | 0.00 | 0.13 | 0.05 | 77 | 1015.3 |